FW2254 Weather Reports


time (UTC)temp
C
wind
direction
speed
KPH
gust
KPH
rain 1hr
cm
rain 24hr
cm
rain mn
cm
humidity
%
barometer
mb
20260509173015 26 26 0.0 4.8 0.00 0.00 0.00 81 1007.8
20260509171509 26 26 0.0 3.2 0.00 0.00 0.00 81 1008.0
20260509170013 27 26 0.0 1.6 0.00 0.00 0.00 82 1008.0
20260509164507 26 26 0.0 1.6 0.00 0.00 0.00 84 1008.1
20260509163006 26 26 0.0 3.2 0.00 0.00 0.00 83 1008.0
20260509161502 25 26 0.0 3.2 0.00 0.00 0.00 87 1008.0
20260509160059 24 26 0.0 4.8 0.00 0.00 0.00 89 1008.0
20260509154558 23 26 0.0 3.2 0.00 0.00 0.00 93 1008.1
20260509153057 22 25 0.0 0.0 0.00 0.00 0.00 95 1008.0
20260509151559 22 26 0.0 0.0 0.00 0.00 0.00 95 1007.9
20260509150053 22 26 0.0 0.0 0.00 0.00 0.00 95 1007.8
20260509144553 22 26 0.0 0.0 0.00 0.00 0.00 95 1008.0
20260509143054 21 26 0.0 1.6 0.00 0.00 0.00 95 1008.0
20260509141551 21 26 0.0 0.0 0.00 0.00 0.00 95 1008.0
20260509140049 21 26 0.0 0.0 0.00 0.00 0.00 95 1008.4
20260509134556 21 26 0.0 0.0 0.00 0.00 0.00 95 1008.5
20260509133048 21 26 0.0 0.0 0.00 0.00 0.00 95 1008.6
20260509131601 21 26 0.0 0.0 0.00 0.00 0.00 94 1008.6
20260509130056 21 26 0.0 0.0 0.00 0.00 0.00 94 1008.5
20260509124548 21 26 0.0 0.0 0.00 0.00 0.00 94 1008.5
20260509123050 21 26 0.0 0.0 0.00 0.00 0.00 94 1008.1
20260509121547 21 26 0.0 0.0 0.00 0.00 0.00 94 1008.2
20260509120041 21 26 0.0 0.0 0.00 0.00 0.00 94 1007.9
20260509114540 21 26 0.0 1.6 0.00 0.00 0.00 94 1007.6
20260509113043 20 26 0.0 0.0 0.00 0.00 0.00 93 1006.9
20260509111537 20 26 0.0 0.0 0.00 0.00 0.00 93 1006.6
20260509110042 20 26 0.0 0.0 0.00 0.00 0.00 93 1006.6
20260509104547 20 26 0.0 1.6 0.00 0.00 0.00 92 1006.4
20260509103035 20 26 0.0 0.0 0.00 0.00 0.00 91 1006.6
20260509101533 20 26 0.0 0.0 0.00 0.00 0.00 90 1006.6
20260509100036 19 26 0.0 0.0 0.00 0.00 0.00 89 1006.7
20260509094532 19 26 0.0 0.0 0.00 0.00 0.00 89 1006.8
20260509093031 19 26 0.0 0.0 0.00 0.00 0.00 88 1006.8
20260509091529 19 26 0.0 0.0 0.00 0.00 0.00 88 1006.8
20260509090029 19 26 0.0 0.0 0.00 0.00 0.00 88 1006.9
20260509084534 19 26 0.0 0.0 0.00 0.00 0.00 87 1007.1
20260509083027 19 26 0.0 0.0 0.00 0.00 0.00 87 1007.8
20260509081537 19 26 0.0 0.0 0.00 0.00 0.00 87 1007.8
20260509080024 19 26 0.0 0.0 0.00 0.00 0.00 87 1007.7
20260509074523 19 26 0.0 0.0 0.00 0.00 0.00 86 1007.6
20260509073022 19 26 0.0 0.0 0.00 0.00 0.00 86 1007.6
20260509071522 19 26 0.0 0.0 0.00 0.00 0.00 86 1008.1
20260509070021 19 26 0.0 0.0 0.00 0.00 0.00 86 1008.4
20260509064519 19 26 0.0 0.0 0.00 0.00 0.00 86 1008.3
20260509063019 19 26 0.0 0.0 0.00 0.00 0.00 87 1008.4
20260509061516 19 26 0.0 1.6 0.00 0.00 0.00 87 1008.4
20260509060012 20 26 0.0 4.8 0.00 0.00 0.00 86 1008.8
20260509054521 21 25 0.0 0.0 0.00 0.00 0.00 86 1008.4
20260509053013 21 25 0.0 0.0 0.00 0.00 0.00 89 1009.4
20260509051502 21 25 0.0 0.0 0.00 0.00 0.00 89 1009.1
20260509050101 21 25 0.0 0.0 0.00 0.00 0.00 89 1008.9
20260509044558 21 26 0.0 0.0 0.00 0.00 0.00 88 1008.6
20260509043059 21 26 0.0 0.0 0.00 0.00 0.00 88 1008.5
20260509041558 21 26 0.0 0.0 0.00 0.00 0.00 88 1008.4
20260509040023 22 26 0.0 1.6 0.00 0.00 0.00 88 1008.0
20260509034523 22 25 0.0 0.0 0.00 0.00 0.00 87 1008.0
20260509033020 22 26 0.0 0.0 0.00 0.00 0.00 87 1007.9
20260509031519 22 25 0.0 0.0 0.00 0.00 0.00 87 1007.9
20260509030030 22 26 0.0 0.0 0.00 0.00 0.00 87 1007.9
20260509024517 22 26 0.0 0.0 0.00 0.00 0.00 86 1007.7
20260509023023 21 25 0.0 0.0 0.00 0.00 0.00 86 1007.2
20260509021513 21 25 0.0 0.0 0.00 0.00 0.00 85 1007.2
20260509020009 21 25 0.0 0.0 0.00 0.00 0.00 85 1007.0
20260509014508 21 25 0.0 0.0 0.00 0.00 0.00 85 1006.8
20260509013005 21 25 0.0 0.0 0.00 0.00 0.00 84 1006.7
20260509011608 22 26 0.0 0.0 0.00 0.00 0.00 83 1006.4
20260509010100 22 25 0.0 0.0 0.00 0.00 0.00 82 1006.3
20260509004606 22 26 0.0 0.0 0.00 0.00 0.00 81 1006.2
20260509003042 23 26 0.0 3.2 0.00 0.00 0.00 79 1006.4
20260509001522 23 25 0.0 1.6 0.00 0.00 0.00 77 1006.5
20260509000019 23 25 0.0 3.2 0.00 0.00 0.00 75 1006.4
20260508234523 24 26 0.0 0.0 0.00 0.00 0.00 75 1006.5
20260508233014 24 26 0.0 6.4 0.00 0.00 0.00 74 1006.4
20260508231510 24 26 1.6 8.0 0.00 0.00 0.00 73 1005.8
20260508230008 23 25 0.0 4.8 0.00 0.00 0.00 76 1005.8
20260508224502 23 25 0.0 1.6 0.00 0.00 0.00 78 1006.2
20260508223002 23 25 0.0 1.6 0.00 0.00 0.00 81 1007.1
20260508221502 23 25 0.0 4.8 0.00 0.00 0.00 76 1006.9
20260508220029 24 25 0.0 0.0 0.00 0.00 0.00 74 1007.3
20260508214528 24 25 0.0 1.6 0.00 0.00 0.00 73 1007.4
20260508213026 25 25 0.0 0.0 0.00 0.00 0.00 72 1007.4
20260508211528 25 25 0.0 1.6 0.00 0.00 0.00 70 1007.3
20260508210028 25 25 0.0 3.2 0.00 0.00 0.00 65 1007.5
20260508204524 26 25 0.0 4.8 0.00 0.00 0.00 64 1007.3
20260508203053 27 25 1.6 6.4 0.00 0.00 0.00 59 1007.6
20260508201559 26 26 0.0 4.8 0.00 0.00 0.00 61 1007.7
20260508200057 26 25 0.0 3.2 0.00 0.00 0.00 59 1007.9
20260508194544 26 25 0.0 3.2 0.00 0.00 0.00 59 1007.9
20260508193051 26 25 1.6 4.8 0.00 0.00 0.00 64 1008.6
20260508191541 26 25 1.6 4.8 0.00 0.00 0.00 63 1008.6
20260508190042 25 25 0.0 3.2 0.00 0.00 0.00 63 1008.9
20260508184535 25 25 0.0 4.8 0.00 0.00 0.00 64 1009.4
20260508183028 25 25 0.0 4.8 0.00 0.00 0.00 66 1009.6
20260508181527 25 25 0.0 4.8 0.00 0.00 0.00 65 1009.7
20260508180023 24 25 0.0 3.2 0.00 0.00 0.00 69 1010.1
20260508174530 23 25 0.0 3.2 0.00 0.00 0.00 69 1010.4